Погода в Емешеве

Россия / Республика Марий Эл     56°13′43″N   46°21′01″E
темп.,
°C
ветер,
м/с
пор.,
м/с
влажн.,
%
обл.,
%
осадки,
мм/ч
давл.,
гПа
погр.,
м
10 мая, пн
пн1000:00+12юз2296100 0.2 101245
03:00+11юз1196100 0.6 101523
06:00+11ююз1196100 0.9 101734
09:00+12ссз2394100 0.9 1018212
12:00+12ссз3594100 0.1 1021317
15:00+14с5684100 0.2 1022499
18:00+13с478699 0.0 1024465
21:00+9с499599 0.0 1025310
11 мая, вт
вт1100:00+8ссв4998100 0.0 1026272
03:00+7ссв4109871 0.0 1026280
06:00+9ссв599136 0.0 1027289
09:00+16св57725 0.0 1027548
12:00+21всв455825 0.0 1027974
15:00+23всв45519 0.0 10261671
18:00+20св376966 0.2 1027229
21:00+15всв368916 0.3 102897
12 мая, ср
ср1200:00+13всв389429 0.0 1028146
03:00+12всв38956 0.0 1028153
06:00+15всв398892 0.0 1028221
09:00+20в4665100 0.0 1028665
12:00+23вюв464899 0.0 10271299
15:00+24юв574499 0.0 10262667
18:00+21вюв366597 0.0 1026181
21:00+16ююв237231 0.0 102751
13 мая, чт
чт1300:00+14юв2262100 0.0 102713
03:00+14в227066 0.0 102716
06:00+16в267552 0.0 1027187
09:00+21юв57525 0.0 1026663
12:00+23юв68435 0.0 10251428
15:00+23юв584587 0.0 10241594
18:00+20вюв41162100 0.0 1023439
21:00+18юв41267100 0.0 1023370
14 мая, пт
пт1400:00+17юв3106892 0.0 1023249
03:00+14ююв238147 0.4 102335
06:00+16ююв277873 0.1 1023189
09:00+22ююв465448 0.1 1022501
12:00+25ююв574251 0.0 10211247
15:00+26ююв58423 0.0 10201892
18:00+23ююв3664100 0.0 1019171
21:00+18ююв3977100 0.0 1019162